Weather Roundup
Issued by NWS Springfield, MO

Home | Current Version | Previous Version | Text Only | Print | Product List | Glossary On
Versions: 1 2 3 4 5 6 7 8 9 10 11 12 13 14 15 16 17 18 19 20 21 22 23 24 25 26 27 28 29 30 31 32 33 34 35 36 37 38 39 40 41 42 43 44 45 46 47 48 49 50
000
NZUS99 KSGF 250807
HRRSGF

HOURLY WEATHER
NATIONAL WEATHER SERVICE SPRINGFIELD MO
300 AM CDT FRI APR 25 2014

......SGF CWA......

CITY           SKY/WX    TMP DP  RH WIND       PRES   REMARKS
SPRINGFIELD    CLEAR     47  42  83 NW5       29.89R
JOPLIN         CLEAR     44  42  93 S3        29.92R
WEST PLAINS    PTCLDY    51  44  77 NW10G20   29.84R
ROLLA          CLOUDY    49  46  90 W12       29.81R
OSAGE BEACH    CLEAR     50  45  81 W5        29.87R
BRANSON        CLEAR     50  41  71 NW8       29.90S

......SURROUNDING SGF CWA......

CITY           SKY/WX    TMP DP  RH WIND       PRES   REMARKS
CHANUTE        CLEAR     45  41  86 S5        29.91S
PARSONS        CLEAR     40  38  93 CALM      29.93R
COFFEYVILLE    CLEAR     45  42  89 S5        29.92S
EMPORIA        CLEAR     47  39  74 S10       29.89R
GROVE OK       CLEAR     45  45 100 CALM      29.94R
ROGERS AR      CLEAR     46  42  86 SW3       29.93S
SILOAM SPRINGS CLEAR     45  37  76 W3        29.95R
HARRISON AR    CLEAR     50  42  74 W9        29.89R
NEAR YELLVILLE CLEAR     54  39  58 NW8       29.86S

......KANSAS AND MISSOURI......

CITY           SKY/WX    TMP DP  RH WIND       PRES   REMARKS
KANSAS CTY INT CLEAR     46  42  86 SW6       29.87S
DOWNTOWN KC    CLEAR     49  44  83 S5        29.86F
COLUMBIA       PTCLDY    50  45  83 W10       29.84R
SEDALIA        CLEAR     51  45  79 W9        29.86S
ST JOSEPH      PTCLDY    42  41  96 SE5       29.86S FOG
ST LOUIS       CLOUDY    55  49  80 W16G24    29.73R
SPIRIT OF STL  CLOUDY   N/A N/A N/A W16       29.75R
KIRKSVILLE     PTCLDY    47  43  86 NW8       29.83R
WICHITA        CLEAR     45  36  70 SW9       29.91S
TOPEKA         FOG       43  41  93 CALM      29.88S VSB 1/4
OLATHE           N/A     49  41  74 W3        29.87F

......TENNESSEE......

CITY           SKY/WX    TMP DP  RH WIND       PRES   REMARKS
MEMPHIS        CLOUDY    62  55  77 W10G18    29.80R
NASHVILLE      CLOUDY    63  61  93 S7        29.70S

......ARKANSAS.......

CITY           SKY/WX    TMP DP  RH WIND       PRES   REMARKS
FAYETTEVILLE   CLEAR     43  41  93 CALM      29.94R
FT SMITH       CLEAR     50  44  80 S3        29.94R
LITTLE ROCK    CLEAR     59  48  67 W9        29.88R

......OKLAHOMA.......

CITY           SKY/WX    TMP DP  RH WIND       PRES   REMARKS
TULSA          CLEAR     50  43  77 S3        29.93S
PONCA CITY     CLEAR     50  37  61 CALM      29.93S
MCALESTER      PTCLDY    45  41  86 CALM      29.96S
OKLAHOMA CITY  CLEAR     50  39  66 S3        29.94F

......IOWA............

CITY           SKY/WX    TMP DP  RH WIND       PRES   REMARKS
DES MOINES     CLEAR     44  39  82 SW5       29.81S
QUAD CITIES    CLOUDY    47  43  86 NW13      29.72R

......ILLINOIS........

CITY           SKY/WX    TMP DP  RH WIND       PRES   REMARKS
QUINCY         CLOUDY    48  46  93 NW12      29.77R
CHICAGO        LGT RAIN  45  40  82 NE12      29.62F



USA.gov is the U.S. government's official web portal to all federal, state and local government web resources and services.